[[{"header":{"parameterUnit":"m.s-1","parameterCategory":1,"la1":30.2992,"la2":30.254,"lo1":-89.0895,"lo2":-89.0443,"dy":0.0025,"dx":0.0025,"nx":19,"ny":19,"refTime":"2026-03-27T21:00:00:Z","depth":0,"parameterNumber":2,"parameterNumberName":"U-component_of_WINDS"},"data":[0,0,0,-3.0882,-3.0884,-3.0964,-3.0964,-3.1075,-3.1076,0,0,0,0,0,0,0,0,0,0,0,-3.0865,-3.0866,-3.0882,-3.0884,-3.0964,-3.0964,-3.1075,-3.1076,0,0,0,0,0,0,0,0,0,0,0,-3.0864,-3.0865,-3.0867,-3.0884,-3.0964,-3.0964,-3.1075,-3.1011,0,0,0,0,0,0,0,0,0,0,-3.0932,-3.0922,-3.0865,-3.0867,-3.0885,-3.0964,-3.0964,-3.1008,-3.1015,-3.1043,0,-3.107,0,-3.1075,-3.1084,-3.1085,0,0,0,-3.0879,-3.0916,-3.0932,-3.0867,-3.0886,-3.0964,-3.0927,-3.1012,-3.102,-3.1053,-3.1072,-3.1076,-3.1077,-3.1085,-3.1086,-3.1265,-3.1266,0,0,-3.0875,-3.0882,-3.0927,-3.0938,-3.0927,-3.0924,-3.0929,-3.1017,-3.1038,-3.1072,-3.1078,-3.1079,-3.1086,-3.1087,-3.1264,-3.1266,0,0,0,-3.0865,-3.0879,-3.0893,-3.0933,-3.0947,-3.0927,-3.0932,-3.1034,-3.1038,-3.1079,-3.108,-3.1087,-3.1088,-3.1263,-3.1265,-3.1326,0,0,0,-3.0863,-3.0874,-3.0891,-3.0896,-3.0946,-3.0992,-3.0948,-3.1032,-3.1041,-3.108,-3.1087,-3.1089,-3.1262,-3.1264,-3.1322,-3.1354,0,0,0,-3.0857,-3.0873,-3.0887,-3.0897,-3.0931,-3.099,-3.0999,-3.1033,-3.1042,-3.1085,-3.109,-3.1261,-3.1264,-3.1318,-3.1348,-3.1404,0,0,0,-3.0853,-3.0939,-3.0888,-3.0984,-3.0931,-3.1027,-3.0998,-3.1069,-3.1113,-3.1087,-3.1262,-3.1265,-3.1317,-3.1344,-3.14,-3.1454,-3.1477,0,0,-3.0966,-3.0953,-3.1009,-3.0965,-3.1073,-3.1014,-3.1131,-3.1163,-3.116,-3.123,-3.1234,-3.1323,-3.1347,-3.1403,-3.16,-3.1619,0,0,0,-3.1047,-3.1087,-3.1114,-3.1157,-3.1184,-3.121,-3.1224,-3.1236,-3.1296,-3.1198,-3.1358,-3.1372,-3.1404,-3.143,-3.1446,-3.1474,-3.1276,-3.1276,-3.1276,-3.1217,-3.1209,-3.1301,-3.1302,-3.1344,-3.1358,-3.139,-3.1409,-3.1387,-3.1425,-3.1447,-3.1567,-3.1597,-3.1609,-3.1638,-3.1473,-3.1473,-3.1474,-3.1474,-3.1382,-3.1438,-3.1408,-3.1487,-3.1478,-3.1543,-3.1559,-3.1542,-3.1601,-3.155,-3.1579,-3.1525,-3.1629,-3.1654,-3.1478,-3.1477,-3.1477,-3.1476,-3.1476,-3.1494,-3.152,-3.1533,-3.1594,-3.1642,-3.1639,-3.1698,-3.1686,-3.1675,-3.1703,-3.1725,-3.1724,-3.1723,-3.1714,-3.1715,-3.1715,-3.1715,-3.1716,-3.1716,-3.1606,-3.1619,-3.1671,-3.1707,-3.1733,-3.1765,-3.1779,-3.1804,-3.1828,-3.1815,-3.1815,-3.1791,-3.1641,-3.1604,-3.1722,-3.1721,-3.172,-3.172,-3.1719,-3.1779,-3.1738,-3.1818,-3.1844,-3.1886,-3.1934,-3.1917,-3.1969,-3.1987,-3.2017,-3.1986,-3.1876,-3.1862,-3.185,-3.182,-3.1987,-3.1987,-3.1987,-3.1987,-3.1875,-3.1867,-3.1946,-3.1989,-3.2028,-3.2022,-3.2112,-3.2123,-3.2128,-3.2139,-3.2112,-3.207,-3.2058,-3.2051,-3.2035,-3.2006,-3.2217,-3.2217,-3.2218,-3.1982,-3.1977,-3.2057,-3.2062,-3.2093,-3.212,-3.2204,-3.2253,-3.225,-3.2227,-3.2147,-3.2137,-3.207,-3.2048,-3.2025,-3.1999,-3.1947,0,0]},{"header":{"parameterUnit":"m.s-1","parameterCategory":1,"la1":30.2992,"la2":30.254,"lo1":-89.0895,"lo2":-89.0443,"dy":0.0025,"dx":0.0025,"nx":19,"ny":19,"refTime":"2026-03-27T21:00:00:Z","depth":0,"parameterNumber":3,"parameterNumberName":"V-component_of_WINDS"},"data":[0,0,0,-8.3256,-8.3259,-8.3364,-8.3365,-8.3513,-8.3514,0,0,0,0,0,0,0,0,0,0,0,-8.3237,-8.3238,-8.3256,-8.3259,-8.3364,-8.3365,-8.3513,-8.3514,0,0,0,0,0,0,0,0,0,0,0,-8.3236,-8.3238,-8.324,-8.3259,-8.3364,-8.3365,-8.3512,-8.3427,0,0,0,0,0,0,0,0,0,0,-8.3322,-8.3316,-8.3237,-8.324,-8.326,-8.3364,-8.3365,-8.3423,-8.3432,-8.3472,0,-8.3514,0,-8.3517,-8.3525,-8.3526,0,0,0,-8.3249,-8.3308,-8.3327,-8.324,-8.3261,-8.3364,-8.3314,-8.3428,-8.3439,-8.3485,-8.3516,-8.3521,-8.3519,-8.3527,-8.3527,-8.3799,-8.3801,0,0,-8.3243,-8.3261,-8.3319,-8.3334,-8.3323,-8.3311,-8.3317,-8.3434,-8.3467,-8.3516,-8.3524,-8.3522,-8.3528,-8.3529,-8.3798,-8.38,0,0,0,-8.3233,-8.3257,-8.3272,-8.3329,-8.3347,-8.3314,-8.3322,-8.3462,-8.3466,-8.3525,-8.3524,-8.3529,-8.3531,-8.3796,-8.3799,-8.3904,0,0,0,-8.3229,-8.3251,-8.327,-8.3282,-8.3345,-8.3407,-8.3347,-8.3458,-8.347,-8.3523,-8.3529,-8.3532,-8.3794,-8.3797,-8.3897,-8.395,0,0,0,-8.3226,-8.3251,-8.3271,-8.3283,-8.3329,-8.3404,-8.3414,-8.346,-8.347,-8.3526,-8.3533,-8.3793,-8.3797,-8.3891,-8.394,-8.4029,0,0,0,-8.3226,-8.3359,-8.3272,-8.3421,-8.3329,-8.347,-8.3413,-8.3517,-8.3577,-8.353,-8.3794,-8.3798,-8.3889,-8.3934,-8.4022,-8.4107,-8.4145,0,0,-8.3404,-8.3382,-8.3468,-8.3393,-8.3555,-8.3452,-8.3628,-8.3665,-8.3651,-8.375,-8.3756,-8.3899,-8.3939,-8.4027,-8.4345,-8.4375,0,0,0,-8.353,-8.3593,-8.3631,-8.3693,-8.3727,-8.376,-8.3769,-8.3783,-8.3866,-8.3707,-8.3954,-8.3977,-8.4028,-8.4068,-8.4093,-8.4136,-8.3817,-8.3817,-8.3817,-8.3807,-8.3787,-8.3928,-8.3922,-8.3982,-8.3991,-8.4037,-8.4056,-8.4015,-8.4074,-8.4103,-8.4299,-8.4347,-8.4365,-8.441,-8.4146,-8.4146,-8.4146,-8.4147,-8.4067,-8.4153,-8.4099,-8.4218,-8.4195,-8.4292,-8.4306,-8.4274,-8.436,-8.4275,-8.4318,-8.4228,-8.4399,-8.4437,-8.4154,-8.4153,-8.4152,-8.4151,-8.4151,-8.4247,-8.4285,-8.4302,-8.4391,-8.446,-8.4447,-8.4534,-8.4508,-8.4483,-8.4527,-8.4556,-8.4554,-8.4549,-8.4542,-8.4543,-8.4544,-8.4544,-8.4545,-8.4545,-8.4427,-8.4444,-8.4522,-8.4572,-8.4609,-8.4654,-8.4666,-8.47,-8.4732,-8.4706,-8.4706,-8.466,-8.442,-8.4361,-8.4556,-8.4554,-8.4553,-8.4552,-8.4551,-8.47,-8.4635,-8.4756,-8.4794,-8.4851,-8.4922,-8.489,-8.4963,-8.4987,-8.503,-8.4975,-8.4802,-8.4775,-8.4755,-8.4706,-8.4979,-8.4979,-8.4979,-8.4979,-8.4853,-8.4838,-8.4958,-8.502,-8.5077,-8.5061,-8.5196,-8.5207,-8.5206,-8.522,-8.5176,-8.5109,-8.5089,-8.5074,-8.5047,-8.5001,-8.5343,-8.5343,-8.5343,-8.502,-8.501,-8.5132,-8.5135,-8.5178,-8.5215,-8.5342,-8.5413,-8.5398,-8.5358,-8.523,-8.5215,-8.5105,-8.5071,-8.5027,-8.4985,-8.49,0,0]}]]